World > North America > United States > Illinois

East Cape Girardeau, Illinois Regional Weather

Lat: 37.30N, Lon: 89.5W
Wx Zone: ILZ092Web Search

Ads allow us to feed your daily addiction for the world's greatest weather information. We're determined to offer quality sponsors, in the least annoying way possible.

Feedback


°F Click to change East Cape Girardeau hourly weather to Imperial units.Click to change East Cape Girardeau hourly weather to Metric units. °C
East Cape Girardeau Weather Map
UTC Time: 5/7/2021, 19:39
Your Time:

East Cape Girardeau, IL Regional Weather

Expires:202105072000;;747660
ASUS43 KLOT 071909
RWRIL 

ILLINOIS REGIONAL WEATHER ROUNDUP
NATIONAL WEATHER SERVICE CHICAGO/ROMEOVILLE IL
200 PM CDT FRI MAY 07 2021

NOTE: "FAIR" INDICATES FEW OR NO CLOUDS BELOW 12,000 FEET WITH NO
SIGNIFICANT WEATHER AND/OR OBSTRUCTIONS TO VISIBILITY.

* THESE STATIONS ARE NOT UNDER NWS QUALITY CONTROL. THEY ALSO MAY NOT
  REPORT WEATHER SUCH AS PRECIPITATION OR FOG.


ILZ064>066-069>071-074>076-080>082-084>086-088>090-092>094-072000-
SOUTH-CENTRAL ILLINOIS
  
CITY           SKY/WX    TMP DP  RH WIND       PRES   REMARKS
CARBONDALE     SUNNY     70  39  32 W10G21    30.07F                  
CAIRO*         SUNNY     68  40  36 W8        30.13F                  
EFFINGHAM*     MOSUNNY   68  43  41 W13G29    30.01F                  
MARION         SUNNY     68  39  34 SW14      30.08F                  
MT. VERNON     SUNNY     69  45  41 SW16G24   30.05F                  
CENTRALIA*     MOSUNNY   68  47  46 W15G21    30.03F                  
SALEM*         MOSUNNY   70  45  39 W15G23    30.03F                  
$$


SKY/WX - Weather  TMP - Temperature  DP - Dew Point  RH - Relative Humidity
WIND - Wind Direction/Speed PRES - Barometric Pressure VSB - Visibility
WCI - Wind Chill Index E13G22 Wind - East Wind 13 mph/Gusts of 22 mph